User: anonymous   Login
Location: Oshawa
(43.9000°N, 78.8670°W)
Time: 01:22:49
(UTC-05:00)
Language:

Cosmos 1805 Rocket - Orbit

View from above orbital plane
View from above orbital plane
View from above satellite
View from above satellite

Ground track
Ground track

The orbit data is extracted from the following two-line orbital elements,

1 17192U 86097B   17347.45059660 +.00000072 +00000-0 +58013-5 0  9998
2 17192 082.5076 088.2648 0015796 226.9082 179.6483 14.83529322654162
Epoch (UTC): 13 December 2017 10:48:51
Eccentricity: 0.0015796
inclination: 82.5076°
perigee height: 607 km
apogee height: 629 km
right ascension of ascending node: 88.2648°
argument of perigee: 226.9082°
revolutions per day: 14.83529322
mean anomaly at epoch: 179.6483°
orbit number at epoch: 65416

The dashed part of the orbit path shows where the satellite is in the earth's shadow,  

DLR